[[{"header":{"parameterUnit":"m.s-1","parameterCategory":1,"la1":30.2991,"la2":30.254,"lo1":-89.0895,"lo2":-89.0444,"dy":0.0017,"dx":0.0017,"nx":28,"ny":28,"refTime":"2024-12-26T03:00:00:Z","depth":0,"parameterNumber":2,"parameterNumberName":"U-component_of_WINDS"},"data":[0,0,0,0,0,0,0,0,0,0,0,0,0,0,0,0,0,0,0,0,0,0,0,0,0,0,0,0,0,0,0,0,0,0,0,0,0,0,0,0,0,0,0,0,0,0,0,0,0,0,0,0,0,0,0,0,0,0,-7.301,-7.3011,0,-7.3083,-7.3084,-7.3085,-7.2945,-7.2941,-7.2936,-7.2932,-7.3005,-7.3011,-7.3017,0,0,0,0,0,0,0,0,0,0,0,0,0,-7.2749,-7.2754,-7.301,-7.3011,-7.3012,-7.3083,-7.3084,-7.3085,-7.2946,-7.294,-7.2935,-7.293,-7.3003,-7.301,-7.3018,0,0,0,0,0,0,0,0,0,0,0,0,0,-7.2846,-7.2756,-7.301,-7.2951,-7.2946,-7.3083,-7.3084,-7.3086,-7.2947,-7.294,-7.2933,-7.2927,-7.3,-7.3009,-7.3019,-7.3215,0,0,-7.3047,-7.3051,0,0,0,0,0,0,0,0,-7.2841,-7.2856,-7.2959,-7.2955,-7.295,-7.2998,-7.3019,-7.3129,-7.2949,-7.2947,-7.2932,-7.2924,-7.3008,-7.3016,-7.3045,-7.3219,-7.3222,-7.3048,-7.3054,-7.3058,-7.3061,0,0,0,0,0,0,0,-7.2834,-7.2852,-7.3039,-7.296,-7.2955,-7.2921,-7.2927,-7.3039,-7.3015,-7.2947,-7.2937,-7.2947,-7.3004,-7.3037,-7.3046,-7.3223,-7.3048,-7.3056,-7.3062,-7.3066,-7.3563,-7.357,0,0,0,0,0,0,-7.2835,-7.2847,-7.3036,-7.3041,-7.2878,-7.2931,-7.2938,-7.299,-7.3014,-7.3011,-7.2953,-7.2941,-7.3024,-7.3035,-7.3048,-7.328,-7.3058,-7.3067,-7.3072,-7.3556,-7.3565,-7.3573,0,0,0,0,0,0,-7.283,-7.2853,-7.3033,-7.2942,-7.2962,-7.2943,-7.3002,-7.2995,-7.3027,-7.3019,-7.3014,-7.299,-7.3019,-7.3035,-7.3175,-7.328,-7.3071,-7.3079,-7.3547,-7.3558,-7.3569,-7.3746,0,0,0,0,0,0,-7.2823,-7.2852,-7.2927,-7.2944,-7.2967,-7.316,-7.3009,-7.3001,-7.3044,-7.3028,-7.3052,-7.305,-7.3015,-7.3162,-7.3185,-7.329,-7.3087,-7.3537,-7.3552,-7.3565,-7.373,-7.3762,-7.3789,0,0,0,0,0,-7.2814,-7.2972,-7.2931,-7.2955,-7.306,-7.3166,-7.3179,-7.3136,-7.3053,-7.3127,-7.3123,-7.3049,-7.3266,-7.3178,-7.3202,-7.3311,-7.353,-7.3548,-7.3564,-7.3717,-7.3755,-7.3788,0,0,0,0,0,0,-7.2966,-7.2974,-7.2927,-7.3096,-7.3132,-7.3142,-7.3235,-7.3178,-7.3237,-7.322,-7.3164,-7.3171,-7.3322,-7.3331,-7.3232,-7.3504,-7.3384,-7.3407,-7.3492,-7.3528,-7.3557,-7.3551,-7.3095,0,0,0,0,0,-7.3019,-7.3105,-7.3107,-7.3256,-7.3277,-7.3254,-7.3298,-7.3263,-7.3297,-7.331,-7.3316,-7.3352,-7.3428,-7.3479,-7.3548,-7.3732,-7.3735,-7.382,-7.3849,-7.3873,-7.3892,-7.3991,-7.4028,-7.3629,-7.3629,-7.3628,0,0,-7.3129,-7.3144,-7.3202,-7.3287,-7.331,-7.3401,-7.3267,-7.3367,-7.3434,-7.3325,-7.3458,-7.3465,-7.3501,-7.3664,-7.3736,-7.3676,-7.4004,-7.3894,-7.3914,-7.392,-7.4012,-7.405,-7.4084,-7.3641,-7.3638,-7.3637,0,0,-7.3376,-7.3397,-7.3523,-7.355,-7.3588,-7.3572,-7.3603,-7.3624,-7.3624,-7.3757,-7.3678,-7.3757,-7.3889,-7.3918,-7.395,-7.4214,-7.4148,-7.4238,-7.4389,-7.4486,-7.4517,-7.4545,-7.4638,-7.4673,-7.4258,-7.4259,-7.4259,0,-7.3507,-7.3641,-7.3595,-7.3702,-7.3742,-7.3651,-7.3779,-7.3807,-7.3866,-7.3896,-7.3828,-7.3994,-7.4012,-7.4181,-7.4246,-7.4275,-7.4309,-7.4233,-7.4517,-7.4544,-7.4569,-7.4657,-7.4693,-7.4269,-7.4268,-7.4267,-7.4266,0,-7.3801,-7.3895,-7.3993,-7.4054,-7.4105,-7.4222,-7.4194,-7.4252,-7.4214,-7.4206,-7.4343,-7.4363,-7.4435,-7.4473,-7.4435,-7.4638,-7.46,-7.4526,-7.4404,-7.4618,-7.47,-7.4734,-7.4284,-7.4281,-7.4277,-7.4275,0,0,-7.414,-7.4178,-7.4214,-7.4241,-7.4278,-7.435,-7.4465,-7.4537,-7.4587,-7.4633,-7.4726,-7.4843,-7.4776,-7.4813,-7.4778,-7.4864,-7.5071,-7.4779,-7.4779,-7.4832,-7.5296,-7.5349,-7.5389,-7.5029,-7.5036,-7.5041,-7.5292,0,-7.4384,-7.4581,-7.4545,-7.4736,-7.4823,-7.474,-7.484,-7.4874,-7.487,-7.4943,-7.4939,-7.5022,-7.4928,-7.495,-7.5031,-7.5029,-7.5163,-7.501,-7.5115,-7.512,-7.5106,-7.5432,-7.5489,-7.5725,-7.5324,-7.5329,-7.5333,0,-7.4693,-7.4752,-7.4953,-7.4979,-7.5014,-7.5104,-7.5169,-7.524,-7.5278,-7.5269,-7.5314,-7.5264,-7.5378,-7.5258,-7.5414,-7.5311,-7.5353,-7.5359,-7.5367,-7.5373,-7.5237,-7.5445,-7.5799,-7.5834,-7.5384,-7.5379,-7.5376,0,-7.492,-7.5049,-7.5186,-7.5212,-7.5246,-7.5312,-7.5329,-7.536,-7.5407,-7.5464,-7.5494,-7.5563,-7.5601,-7.5656,-7.5627,-7.5542,-7.579,-7.5666,-7.5785,-7.5786,-7.5838,-7.5834,-7.6201,-7.5869,-7.5868,-7.5868,-7.5867,0,-7.5194,-7.532,-7.5288,-7.5372,-7.5511,-7.547,-7.5609,-7.5616,-7.5646,-7.573,-7.5663,-7.5744,-7.5702,-7.5779,-7.5758,-7.5891,-7.5909,-7.5905,-7.5897,-7.591,-7.591,-7.5934,-7.5916,-7.5877,-7.5875,-7.5873,-7.5872,0,-7.5468,-7.5452,-7.5596,-7.5618,-7.5627,-7.5729,-7.5747,-7.5826,-7.582,-7.5927,-7.595,-7.594,-7.6028,-7.6006,-7.6101,-7.6087,-7.6255,-7.6227,-7.6242,-7.6235,-7.6354,-7.6343,-7.6747,-7.6798,-7.6435,-7.6439,-7.6442,0,-7.5643,-7.5738,-7.5772,-7.5824,-7.5847,-7.5932,-7.598,-7.5945,-7.5998,-7.6051,-7.6124,-7.6207,-7.627,-7.6416,-7.6416,-7.649,-7.6462,-7.66,-7.6473,-7.6483,-7.6463,-7.6457,-7.6466,-7.6623,-7.6628,-7.6631,-7.6634,0,-7.5954,-7.5943,-7.6015,-7.6087,-7.6147,-7.6201,-7.6249,-7.6296,-7.6264,-7.6328,-7.6418,-7.6469,-7.6568,-7.6651,-7.672,-7.6737,-7.6681,-7.6675,-7.6706,-7.6718,-7.6722,-7.672,-7.6309,-7.6664,-7.6661,-7.6659,-7.6657,-7.6656,-7.6182,-7.6264,-7.6301,-7.6385,-7.6418,-7.6466,-7.6541,-7.6546,-7.6621,-7.67,-7.6675,-7.6779,-7.6817,-7.6903,-7.693,-7.701,-7.6958,-7.7003,-7.7014,-7.7026,-7.704,-7.6712,-7.7023,-7.7022,-7.7021,-7.702,-7.702,0,-7.6489,-7.651,-7.6588,-7.6659,-7.6726,-7.667,-7.6721,-7.678,-7.6872,-7.6913,-7.6979,-7.7084,-7.7166,-7.7175,-7.7252,-7.7315,-7.7291,-7.7336,-7.7329,-7.7335,-7.7083,-7.7047,-7.7354,-7.7354,-7.7354,-7.7354,-7.7354,-7.7354,-7.6656,-7.6791,-7.6785,-7.6937,-7.6957,-7.7059,-7.7093,-7.7136,-7.7169,-7.729,-7.7358,-7.7364,-7.7393,-7.7472,-7.7545,-7.7546,-7.7576,-7.7631,-7.7622,-7.7385,-7.7352,-7.732,-7.7287,-7.7639,-7.7639,-7.7866,-7.7869,-7.787]},{"header":{"parameterUnit":"m.s-1","parameterCategory":1,"la1":30.2991,"la2":30.254,"lo1":-89.0895,"lo2":-89.0444,"dy":0.0017,"dx":0.0017,"nx":28,"ny":28,"refTime":"2024-12-26T03:00:00:Z","depth":0,"parameterNumber":3,"parameterNumberName":"V-component_of_WINDS"},"data":[0,0,0,0,0,0,0,0,0,0,0,0,0,0,0,0,0,0,0,0,0,0,0,0,0,0,0,0,0,0,0,0,0,0,0,0,0,0,0,0,0,0,0,0,0,0,0,0,0,0,0,0,0,0,0,0,0,0,-0.5333,-0.5333,0,-0.5257,-0.5256,-0.5255,-0.5213,-0.5213,-0.5213,-0.5213,-0.5133,-0.5131,-0.5129,0,0,0,0,0,0,0,0,0,0,0,0,0,-0.5441,-0.5439,-0.5334,-0.5333,-0.5332,-0.5257,-0.5256,-0.5255,-0.5213,-0.5213,-0.5213,-0.5212,-0.5134,-0.5131,-0.5129,0,0,0,0,0,0,0,0,0,0,0,0,0,-0.5382,-0.5439,-0.5334,-0.5302,-0.5298,-0.5257,-0.5256,-0.5254,-0.5213,-0.5213,-0.5213,-0.5212,-0.5135,-0.5132,-0.5129,-0.5113,0,0,-0.5119,-0.5118,0,0,0,0,0,0,0,0,-0.5386,-0.5378,-0.5307,-0.5304,-0.53,-0.5244,-0.5264,-0.5207,-0.5213,-0.5245,-0.5213,-0.5212,-0.517,-0.5164,-0.515,-0.5109,-0.5106,-0.5119,-0.5117,-0.5116,-0.5115,0,0,0,0,0,0,0,-0.539,-0.5382,-0.5303,-0.5306,-0.5302,-0.529,-0.5282,-0.5253,-0.5209,-0.5242,-0.5239,-0.5231,-0.5168,-0.5153,-0.5148,-0.5105,-0.5119,-0.5116,-0.5115,-0.5113,-0.5044,-0.5044,0,0,0,0,0,0,-0.5399,-0.5385,-0.5306,-0.5301,-0.5343,-0.5288,-0.5279,-0.5262,-0.521,-0.5202,-0.5231,-0.5229,-0.5158,-0.5151,-0.5145,-0.5121,-0.5116,-0.5113,-0.5111,-0.5044,-0.5044,-0.5044,0,0,0,0,0,0,-0.5402,-0.5393,-0.5309,-0.5342,-0.533,-0.5287,-0.5268,-0.5261,-0.5246,-0.5201,-0.5193,-0.5224,-0.5158,-0.5149,-0.5121,-0.5118,-0.5112,-0.5109,-0.5044,-0.5044,-0.5044,-0.5076,0,0,0,0,0,0,-0.5405,-0.5394,-0.5388,-0.5342,-0.5329,-0.5287,-0.5268,-0.5259,-0.5241,-0.5238,-0.5192,-0.5185,-0.5157,-0.5125,-0.5118,-0.5114,-0.5107,-0.5044,-0.5044,-0.5044,-0.5075,-0.5077,-0.5078,0,0,0,0,0,-0.5409,-0.5401,-0.5388,-0.5379,-0.5321,-0.5287,-0.5279,-0.5248,-0.5241,-0.5234,-0.5205,-0.5186,-0.512,-0.5123,-0.5114,-0.5109,-0.5044,-0.5044,-0.5044,-0.5074,-0.5076,-0.5078,0,0,0,0,0,0,-0.5448,-0.5394,-0.538,-0.5357,-0.5327,-0.528,-0.5271,-0.5252,-0.5223,-0.5221,-0.5183,-0.5173,-0.5148,-0.5125,-0.513,-0.509,-0.508,-0.5078,-0.5105,-0.5107,-0.5109,-0.5115,-0.5104,0,0,0,0,0,-0.5454,-0.5431,-0.5385,-0.5369,-0.5354,-0.5315,-0.5299,-0.5277,-0.5244,-0.5232,-0.52,-0.5169,-0.514,-0.5123,-0.5094,-0.5071,-0.5059,-0.5063,-0.5065,-0.5067,-0.5065,-0.5049,-0.5049,-0.5044,-0.5044,-0.5044,0,0,-0.5467,-0.5434,-0.5422,-0.5376,-0.535,-0.5326,-0.5305,-0.5281,-0.5262,-0.5228,-0.5199,-0.5174,-0.5136,-0.511,-0.5096,-0.509,-0.5064,-0.5066,-0.5068,-0.5066,-0.5049,-0.5049,-0.505,-0.5044,-0.5044,-0.5044,0,0,-0.5476,-0.545,-0.5432,-0.5406,-0.5367,-0.534,-0.5336,-0.5291,-0.5274,-0.5244,-0.5217,-0.5193,-0.5146,-0.5119,-0.51,-0.5096,-0.5076,-0.5087,-0.5097,-0.5082,-0.5082,-0.5082,-0.5079,-0.5079,-0.5086,-0.5086,-0.5086,0,-0.5496,-0.5459,-0.5426,-0.5403,-0.5382,-0.5349,-0.533,-0.5306,-0.526,-0.5246,-0.5239,-0.5177,-0.515,-0.5115,-0.5114,-0.51,-0.5092,-0.5093,-0.5085,-0.5085,-0.5084,-0.5081,-0.508,-0.5088,-0.5088,-0.5088,-0.5087,0,-0.5485,-0.546,-0.545,-0.5405,-0.5384,-0.5363,-0.5325,-0.5306,-0.5286,-0.5259,-0.5228,-0.5193,-0.5156,-0.5146,-0.5126,-0.5108,-0.5105,-0.5092,-0.5081,-0.5087,-0.5083,-0.5081,-0.509,-0.5089,-0.5089,-0.5089,0,0,-0.5519,-0.5454,-0.5451,-0.5429,-0.5382,-0.5361,-0.5337,-0.5301,-0.5285,-0.5253,-0.5231,-0.5191,-0.5178,-0.5155,-0.5132,-0.5118,-0.5114,-0.5106,-0.5105,-0.5108,-0.509,-0.5099,-0.5098,-0.5101,-0.5101,-0.5101,-0.5092,0,-0.5521,-0.5478,-0.5445,-0.5414,-0.5389,-0.5356,-0.5334,-0.5303,-0.5277,-0.5251,-0.5221,-0.5193,-0.5179,-0.5164,-0.5149,-0.5118,-0.511,-0.5118,-0.5079,-0.5078,-0.5089,-0.5096,-0.5107,-0.5101,-0.5091,-0.509,-0.509,0,-0.5518,-0.5487,-0.5453,-0.5405,-0.5394,-0.5376,-0.5338,-0.5314,-0.5276,-0.5258,-0.5231,-0.5206,-0.5178,-0.517,-0.5129,-0.5135,-0.5117,-0.5099,-0.5098,-0.5093,-0.5085,-0.509,-0.5098,-0.5097,-0.5088,-0.5088,-0.5088,0,-0.5545,-0.5494,-0.5466,-0.5448,-0.5393,-0.5381,-0.5357,-0.5319,-0.5298,-0.5264,-0.525,-0.5214,-0.5194,-0.5166,-0.5131,-0.5129,-0.5094,-0.5083,-0.5077,-0.5077,-0.5071,-0.5072,-0.5075,-0.5061,-0.5061,-0.5061,-0.5061,0,-0.555,-0.553,-0.5477,-0.546,-0.5436,-0.5398,-0.5374,-0.5348,-0.5313,-0.5289,-0.5258,-0.5236,-0.5192,-0.5164,-0.5137,-0.5106,-0.5098,-0.5081,-0.5074,-0.5084,-0.5086,-0.5071,-0.507,-0.506,-0.506,-0.506,-0.506,0,-0.5576,-0.554,-0.5507,-0.5456,-0.5443,-0.5427,-0.5384,-0.5365,-0.5336,-0.5306,-0.5297,-0.5252,-0.5217,-0.5179,-0.5132,-0.5113,-0.5084,-0.5074,-0.5097,-0.5092,-0.5088,-0.5088,-0.5081,-0.5077,-0.5067,-0.5067,-0.5067,0,-0.5582,-0.5565,-0.5513,-0.5494,-0.5471,-0.5442,-0.542,-0.5381,-0.5359,-0.5313,-0.5299,-0.5262,-0.523,-0.5176,-0.5138,-0.5101,-0.509,-0.5089,-0.5084,-0.5093,-0.5088,-0.5089,-0.5086,-0.5091,-0.5092,-0.5092,-0.5092,0,-0.5595,-0.5577,-0.5547,-0.5509,-0.5484,-0.5452,-0.542,-0.5406,-0.536,-0.5337,-0.5301,-0.5276,-0.5226,-0.5189,-0.5147,-0.5121,-0.5098,-0.5094,-0.509,-0.51,-0.5113,-0.5104,-0.51,-0.5095,-0.5094,-0.5094,-0.5094,-0.5094,-0.561,-0.5593,-0.5553,-0.5519,-0.549,-0.5459,-0.5438,-0.5406,-0.5376,-0.5332,-0.5311,-0.5274,-0.5233,-0.5174,-0.5149,-0.5119,-0.5112,-0.5107,-0.5106,-0.5105,-0.5106,-0.5118,-0.5111,-0.5111,-0.5111,-0.5111,-0.5111,0,-0.5621,-0.5592,-0.5562,-0.5516,-0.5489,-0.547,-0.5432,-0.541,-0.5378,-0.5342,-0.5311,-0.5268,-0.5231,-0.5189,-0.5149,-0.5133,-0.5121,-0.5123,-0.5124,-0.5118,-0.5116,-0.5122,-0.5133,-0.5133,-0.5133,-0.5133,-0.5133,-0.5133,-0.5623,-0.5593,-0.5569,-0.5523,-0.5494,-0.5458,-0.5438,-0.5408,-0.5379,-0.5333,-0.5301,-0.5274,-0.5235,-0.5192,-0.5156,-0.5145,-0.5131,-0.5136,-0.5121,-0.512,-0.5118,-0.5117,-0.5123,-0.5134,-0.5134,-0.5126,-0.5126,-0.5126]}]]